Вернуться в каталог

FENGYUN 1C DEB

АктивенSSO
NORAD 31188·DEBRIS·🇨🇳 China

Запущен May 10, 1999 с Taiyuan Satellite Launch Center

Loading…

Ближайшие Пролёты (ближайшие 24 часа)

TLE

СвежийSource: Space-Track

Эпоха: Sep 12, 2026, 10:21 UTC

1 31188U 99025BJS 26255.43171962  .00001771  00000-0  75604-3 0  9990
2 31188  98.7309 326.8880 0059665 175.6294 319.6579 14.25346641  2186

Отслеживайте FENGYUN 1C DEB в реальном времени с AllMySat

Download on the App Store